Regional Weather Roundup
Issued by NWS Sterling, VA

Home | Current Version | Previous Version | Text Only | Print | Product List | Glossary Off
Versions: 1 2 3 4 5 6 7 8 9 10 11 12 13 14 15 16 17 18 19 20 21 22 23 24 25 26 27 28 29 30 31 32 33 34 35 36 37 38 39 40 41 42 43 44 45 46 47 48 49 50

000
ASUS41 KLWX 070210
RWRLWX

REGIONAL WEATHER ROUNDUP
NATIONAL WEATHER SERVICE BALTIMORE MD/WASHINGTON DC
900 PM EST TUE DEC 06 2016

Note: "FAIR" indicates few or no clouds below 12,000 feet
with no significant weather and/or obstructions to visibility.
 TC=TEMPERATURE CELSIUS

 * =Non NWS site. Station does not report precipitation (e.g. rain,
    snow, etc.), thunder, or fog.

DCZ001-MDZ009-015-VAZ040>042-051-053>054-070300-
WASHINGTON METRO

CITY           SKY/WX    TMP DP  RH WIND       PRES   REMARKS
WASHINGTON NAT LGT RAIN  45  44  97 N15       29.79F FOG
DULLES         CLOUDY    40  38  93 N9        29.79F FOG
ANDREWS AFB    LGT RAIN  43  42  95 NE15      29.76S
FT BELVOIR     MOCLDY    45  41  87 VRB3      29.77F
QUANTICO       LGT RAIN  44  42  93 N13G21    29.79F FOG
COLLEGE PARK*  CLOUDY    43  41  93 N7        29.78S
LEESBURG*      CLOUDY    41  41 100 N9        29.81F FOG
MANASSAS*        N/A    N/A N/A N/A N12       29.80  FOG
GAITHERSBURG*  CLOUDY    41  37  87 NE7       29.82F

$$

MDZ006>007-011-014-070300-
BALTIMORE METRO

CITY           SKY/WX    TMP DP  RH WIND       PRES   REMARKS
BWI AIRPORT    CLOUDY    44  43  96 N10       29.79F FOG
MD SCIENCE CTR   N/A     44  40  85 MISG      29.81F
MARTIN STATE   HVY RAIN  45  45 100 N7        29.82F
ANNAPOLIS      LGT RAIN  46  43  89 N14G22    29.77F
FORT MEADE*    CLOUDY    43  41  93 N8        29.81F

$$

MDZ012-015-019>023-070300-
MARYLAND EASTERN SHORE

CITY           SKY/WX    TMP DP  RH WIND       PRES   REMARKS
OCEAN CITY     HVY RAIN  50  50 100 NE24G33   29.70R FOG
SALISBURY      HVY RAIN  49  48  97 NE21G33   29.62F FOG
BAY BRIDGE AP* DRIZZLE   45  43  93 N12G20    29.77F
CAMBRIDGE*     CLOUDY    46  45  93 N12G18    29.70R
EASTON*        CLOUDY    46  45  93 NE14      29.77R

$$

MDZ017>025-070300-
SOUTHERN MARYLAND

CITY           SKY/WX    TMP DP  RH WIND       PRES   REMARKS
PATUXENT RIVER CLOUDY    47  46  97 N20       29.68F
ST INIGOES     LGT RAIN  48  47  96 N9G20     29.66S
LEONARDTOWN*   CLOUDY    45  43  93 N9        29.72R

$$

MDZ003>005-070300-
NORTH CENTRAL MARYLAND

CITY           SKY/WX    TMP DP  RH WIND       PRES   REMARKS
FREDERICK*     CLOUDY    37  37 100 N7        29.84  FOG
HAGERSTOWN APT CLOUDY    37  34  89 N8        29.82F FOG
WESTMINSTER*   DRIZZLE   39  37  93 NE6       29.80F

$$

MDZ501>502-070300-
WESTERN MARYLAND

CITY           SKY/WX    TMP DP  RH WIND       PRES   REMARKS
OAKLAND*       CLOUDY    32  32 100 CALM      29.74F FOG
CUMBERLAND*    NOT AVBL

$$

VAZ025>031-070300-
SHENANDOAH VALLEY

CITY           SKY/WX    TMP DP  RH WIND       PRES   REMARKS
WINCHESTER*    DRIZZLE   36  36 100 NW7       29.84R
FRONT ROYAL*   CLOUDY    36  36 100 CALM      29.84R
LURAY*         CLOUDY    36  36 100 CALM      29.84R FOG
NEW MARKET*    CLOUDY    36  35  94 N5        29.83S
STAUNTON*      CLOUDY    36  35  94 CALM      29.84S
WAYNESBORO*    CLOUDY    35  34  96 CALM      29.82S

$$

WVZ021-048>050-054>055-070300-
EASTERN WEST VIRGINIA PANHANDLE

CITY           SKY/WX    TMP DP  RH WIND       PRES   REMARKS
MARTINSBURG    LGT RAIN  37  35  92 W6        29.85R FOG
PETERSBURG*    MIX PCPN  37  37  98 CALM      29.85S

$$

VAZ036>039-050-070300-
CENTRAL FOOTHILLS

CITY           SKY/WX    TMP DP  RH WIND       PRES   REMARKS
CHARLOTTESVILL CLOUDY    43  40  89 CALM      29.80S
CULPEPER*      CLOUDY    41  40  96 CALM      29.82R
ORANGE*          N/A     41  41 100 NW6       29.82R
GORDONSVILLE*  CLOUDY    41  40  94 N6        29.80R
WARRENTON*     CLOUDY    41  37  83 N3        29.79S

$$

VAZ055>057-070300-
NORTH AND CENTRAL PIEDMONT

CITY           SKY/WX    TMP DP  RH WIND       PRES   REMARKS
FREDERICKSBRG* DRIZZLE   43  43 100 N9G16     29.77F
STAFFORD*      HVY RAIN  41  41 100 N8        29.82S

$$

NCZ024-NYZ072-PAZ021-071-VAZ022-071-070300-
OTHER REGIONAL OBSERVATIONS

CITY           SKY/WX    TMP DP  RH WIND       PRES   REMARKS
NEW YORK CITY  LGT RAIN  40  36  86 E10G16    29.95F FOG
PHILADELPHIA   LGT RAIN  44  40  85 NE14G22   29.84F
PITTSBURGH     DRIZZLE   41  40  96 S6        29.74S FOG
ROANOKE        CLOUDY    40  37  89 N5        29.86R
RICHMOND       LGT RAIN  43  42  97 N16       29.73R
RALEIGH        CLOUDY    43  40  89 W6        29.84R

$$

ANZ530>537-070300-
MARINE OBSERVATIONS

STATION/POSITION TIME  TEMP    WIND        PRES
                       AIR SEA DIR/SP/G
                 (UTC) (F)     (DEG/KT/KT) (MB)
THOMAS PT LIGHT  NOT AVBL

$$




USA.gov is the U.S. government's official web portal to all federal, state and local government web resources and services.